Location: Cherryland
(37.6794°N, 122.1033°W)
Time: 14:42:54
(UTC+00:00)

SL-4 R/B - Pass Details

Date: 14 December 2025
Orbit: 385 x 521 km, 51.6° (Epoch: 17 January)

Event Time Altitude Azimuth Distance (km) Brightness Sun altitude
Exits shadow 14:10:14 22° 309° (NW) 936 2.6 -12.7°
Maximum altitude 14:12:12 88° 221° (SW) 395 1.2 -12.3°
Drops below altitude 10° 14:15:20 10° 132° (SE) 1,405 5.3 -11.7°
Sets 14:17:22 0° 132° (SE) 2,252 6.6 -11.3°
